Tracking 18840 objects as of 17-November-2017
HD Live streaming from Space Station
objects crossing your sky now

COSMOS 980

Track COSMOS 980 now!
10-day predictions
COSMOS 980 is classified as:


NORAD ID: 10587
Int'l Code: 1978-005E
Perigee: 1,470.5 km
Apogee: 1,481.9 km
Inclination: 74.0 °
Period: 115.3 minutes
Semi major axis: 7847 km
RCS: 0.688 m2 (medium)
Launch date: January 10, 1978
Source: Commonwealth of Independent States (former USSR) (CIS)
Launch site: PLESETSK MISSILE AND SPACE COMPLEX (PKMTR)
aabbcc
Your satellite tracking list
Your tracking list is empty




NASA's NSSDC Master Catalog

Two Line Element Set (TLE):
1 10587U 78005E   17320.87445667 -.00000014 +00000-0 +10446-4 0  9996
2 10587 074.0306 214.3424 0007283 063.0818 006.0135 12.48901825811431
Source of the keplerian elements: AFSPC